This is the latest recevied weather packets stored in our database for station/object KB3YCK-2. If no packets are shown the sender has not sent any weather packets the latest 10 day(s).
| Time | Temp. | Humidity | Pressure | Rain* | Wind** | Luminosity | Snow |
|---|---|---|---|---|---|---|---|
| 1778079606 | 16.11° C | 90% | 1010 hPa | 1.78 mm | - | 102 W/m² | - |
| 1778078407 | 16.11° C | 89% | 1010 hPa | 1.02 mm | - | 46 W/m² | - |
| 1778077805 | 16.67° C | 89% | 1010.3 hPa | 0.51 mm | - | 47 W/m² | - |
| 1778077508 | 16.67° C | 89% | 1010.4 hPa | 0.51 mm | - | 63 W/m² | - |
| 1778076307 | 17.22° C | 87% | 1010.1 hPa | 0 mm | - | 93 W/m² | - |
| 1778074208 | 17.78° C | 86% | 1010 hPa | 0 mm | - | 276 W/m² | - |
| 1778073908 | 17.78° C | 86% | 1010.1 hPa | 0 mm | - | 243 W/m² | - |
| 1778073612 | 17.78° C | 86% | 1010.1 hPa | 0 mm | - | 181 W/m² | - |
| 1778073307 | 17.78° C | 85% | 1010.1 hPa | 0 mm | - | 174 W/m² | - |
| 1778073004 | 17.78° C | 85% | 1010.1 hPa | 0 mm | - | 132 W/m² | - |
| 1778071520 | 17.78° C | 84% | 1010.3 hPa | 0 mm | - | 69 W/m² | - |
| 1778069113 | 17.78° C | 84% | 1010 hPa | 0 mm | - | 128 W/m² | - |
| 1778067905 | 17.78° C | 84% | 1009.9 hPa | 0 mm | - | 77 W/m² | - |
| 1778067604 | 17.78° C | 84% | 1009.8 hPa | 0 mm | - | 120 W/m² | - |
| 1778067310 | 17.78° C | 84% | 1009.9 hPa | 0 mm | - | 123 W/m² | - |
| 1778066406 | 17.78° C | 84% | 1009.7 hPa | 0 mm | - | 83 W/m² | - |
| 1778065504 | 17.78° C | 84% | 1009.7 hPa | 0 mm | - | 53 W/m² | - |
| 1778064904 | 17.78° C | 84% | 1009.6 hPa | 0 mm | - | 53 W/m² | - |
| 1778064303 | 17.78° C | 84% | 1009.6 hPa | 0 mm | - | 37 W/m² | - |
| 1778061904 | 17.22° C | 84% | 1009.6 hPa | 0 mm | - | 5 W/m² | - |
| 1778059803 | 17.78° C | 83% | 1009.7 hPa | 0 mm | - | 0 W/m² | - |
| 1778058918 | 18.33° C | 82% | 1009.8 hPa | 0 mm | - | 0 W/m² | - |
| 1778058303 | 18.33° C | 82% | 1009.8 hPa | 0 mm | - | 0 W/m² | - |
| 1778057703 | 18.33° C | 82% | 1009.8 hPa | 0 mm | - | 0 W/m² | - |
| 1778056808 | 18.89° C | 82% | 1009.8 hPa | 0 mm | - | 0 W/m² | - |
* Rain latest hour (hover to see other rain measurements)
** Current wind speed in m/s (hover to see current wind gust speed)